Location: Cartignies
(50.0929°N, 3.8447°E)
Time: 13:33:10
(UTC+00:00)

Resurs 01 Rocket - Pass Details

Date: 12 January 2026
Orbit: 628 x 635 km, 97.7° (Epoch: 16 February)

Event Time Altitude Azimuth Distance (km) Brightness Sun altitude
Exits shadow 17:15:56 12° 92° (E) 1,856 3.4 -10.7°
Maximum altitude 17:18:07 17° 59° (ENE) 1,600 3.0 -11.0°
Drops below altitude 10° 17:20:55 10° 19° (NNE) 2,017 3.8 -11.4°
Sets 17:23:45 0° 359° (N) 2,931 4.8 -11.9°
